WAU008 UKHP-UKBB

Flight info

Callsign WAU008
Flight time 0h 41m
Altitude 18000
Route UKHP DCT PEKIT L67 VEBIX P749 CY DCT UKBB
Aircraft A320/M-V/N

Departure

Time 2026-04-15 22:23
Airport Suprunovka Airport (UKHP)

Arrival

Time 2026-04-15 23:04
Airport Boryspil International Airport (UKBB)
Time Latitude Longitude Altitude Speed Heading
2026-04-15 22:01 49.57306 34.39853 503 ft 0 kts 277°
2026-04-15 22:15 49.57307 34.39841 503 ft 2 kts 277°
2026-04-15 22:15 49.57304 34.39804 503 ft 4 kts 230°
2026-04-15 22:16 49.57263 34.39782 503 ft 7 kts 187°
2026-04-15 22:16 49.57198 34.39771 503 ft 10 kts 186°
2026-04-15 22:16 49.57115 34.39756 502 ft 13 kts 186°
2026-04-15 22:16 49.57006 34.39738 500 ft 17 kts 186°
2026-04-15 22:17 49.56921 34.39655 500 ft 14 kts 270°
2026-04-15 22:17 49.56932 34.39536 499 ft 7 kts 242°
2026-04-15 22:17 49.56911 34.39536 499 ft 3 kts 92°
2026-04-15 22:17 49.56911 34.39559 499 ft 0 kts 88°
2026-04-15 22:18 49.56911 34.39567 499 ft 1 kts 88°
2026-04-15 22:18 49.56912 34.39588 500 ft 2 kts 88°
2026-04-15 22:18 49.56913 34.39636 500 ft 6 kts 88°
2026-04-15 22:18 49.56914 34.39724 500 ft 10 kts 91°
2026-04-15 22:19 49.56906 34.39845 500 ft 12 kts 96°
2026-04-15 22:19 49.56896 34.39988 500 ft 14 kts 96°
2026-04-15 22:19 49.56885 34.40147 500 ft 15 kts 96°
2026-04-15 22:19 49.56874 34.40312 500 ft 15 kts 96°
2026-04-15 22:20 49.56862 34.40474 502 ft 14 kts 96°
2026-04-15 22:20 49.56852 34.40633 503 ft 15 kts 96°
2026-04-15 22:20 49.56840 34.40796 503 ft 15 kts 96°
2026-04-15 22:20 49.56828 34.40960 503 ft 13 kts 96°
2026-04-15 22:21 49.56845 34.41070 504 ft 9 kts 63°
2026-04-15 22:21 49.56839 34.41076 504 ft 6 kts 270°
2026-04-15 22:21 49.56829 34.41031 503 ft 4 kts 258°
2026-04-15 22:21 49.56828 34.40979 503 ft 5 kts 273°
2026-04-15 22:22 49.56831 34.40926 503 ft 5 kts 275°
2026-04-15 22:22 49.56836 34.40854 503 ft 20 kts 275°
2026-04-15 22:22 49.56874 34.40274 500 ft 86 kts 276°
2026-04-15 22:22 49.56962 34.39049 500 ft 141 kts 275°
2026-04-15 22:23 49.57081 34.37363 797 ft 167 kts 275°
2026-04-15 22:23 49.57236 34.35595 1490 ft 167 kts 276°
2026-04-15 22:23 49.57391 34.33887 2251 ft 161 kts 278°
2026-04-15 22:23 49.57524 34.32178 2757 ft 167 kts 263°
2026-04-15 22:24 49.57015 34.30540 3133 ft 186 kts 225°
2026-04-15 22:24 49.55812 34.29469 3358 ft 218 kts 204°
2026-04-15 22:24 49.54298 34.28671 3790 ft 239 kts 200°
2026-04-15 22:24 49.52680 34.27824 4307 ft 254 kts 210°
2026-04-15 22:25 49.51360 34.26054 5036 ft 256 kts 238°
2026-04-15 22:25 49.50555 34.23634 5936 ft 256 kts 248°
2026-04-15 22:25 49.49867 34.21137 6800 ft 259 kts 249°
2026-04-15 22:25 49.49151 34.18571 7673 ft 263 kts 248°
2026-04-15 22:26 49.48415 34.16025 8520 ft 266 kts 248°
2026-04-15 22:26 49.47647 34.13453 9352 ft 270 kts 247°
2026-04-15 22:26 49.46854 34.10850 10187 ft 273 kts 247°
2026-04-15 22:26 49.46025 34.08160 10826 ft 285 kts 247°
2026-04-15 22:27 49.45155 34.05352 11254 ft 303 kts 246°
2026-04-15 22:27 49.44224 34.02365 11855 ft 313 kts 246°
2026-04-15 22:27 49.43278 33.99353 12634 ft 316 kts 246°
2026-04-15 22:27 49.42331 33.96344 13415 ft 318 kts 246°
2026-04-15 22:28 49.41367 33.93286 14162 ft 321 kts 246°
2026-04-15 22:28 49.40391 33.90196 14883 ft 323 kts 247°
2026-04-15 22:28 49.39419 33.87122 15576 ft 326 kts 248°
2026-04-15 22:28 49.38428 33.83988 16270 ft 328 kts 248°
2026-04-15 22:29 49.37434 33.80841 16937 ft 331 kts 248°
2026-04-15 22:29 49.36433 33.77678 17583 ft 333 kts 248°
2026-04-15 22:29 49.35413 33.74461 18013 ft 336 kts 248°
2026-04-15 22:29 49.34394 33.71253 18159 ft 336 kts 248°
2026-04-15 22:30 49.33384 33.68076 18153 ft 336 kts 248°
2026-04-15 22:30 49.32398 33.64823 18142 ft 334 kts 254°
2026-04-15 22:30 49.32027 33.61402 18151 ft 328 kts 274°
2026-04-15 22:30 49.32452 33.58020 18162 ft 326 kts 291°
2026-04-15 22:31 49.33382 33.54837 18159 ft 326 kts 295°
2026-04-15 22:31 49.34323 33.51710 18158 ft 326 kts 295°
2026-04-15 22:31 49.35265 33.48571 18163 ft 326 kts 295°
2026-04-15 22:31 49.36220 33.45385 18162 ft 326 kts 295°
2026-04-15 22:32 49.37164 33.42234 18166 ft 325 kts 295°
2026-04-15 22:32 49.38101 33.39098 18156 ft 325 kts 295°
2026-04-15 22:32 49.39039 33.35957 18164 ft 326 kts 295°
2026-04-15 22:32 49.39981 33.32797 18164 ft 325 kts 294°
2026-04-15 22:33 49.40909 33.29678 18164 ft 325 kts 294°
2026-04-15 22:33 49.41854 33.26501 18155 ft 325 kts 294°
2026-04-15 22:33 49.42788 33.23357 18154 ft 325 kts 294°
2026-04-15 22:33 49.43717 33.20221 18154 ft 324 kts 294°
2026-04-15 22:34 49.44654 33.17056 18154 ft 324 kts 294°
2026-04-15 22:34 49.45586 33.13901 18159 ft 325 kts 294°
2026-04-15 22:34 49.46519 33.10744 18167 ft 325 kts 294°
2026-04-15 22:34 49.47450 33.07588 18145 ft 325 kts 294°
2026-04-15 22:35 49.48373 33.04453 18163 ft 326 kts 294°
2026-04-15 22:35 49.49313 33.01263 18163 ft 325 kts 294°
2026-04-15 22:35 49.50240 32.98105 18155 ft 325 kts 294°
2026-04-15 22:35 49.51169 32.94939 18155 ft 325 kts 294°
2026-04-15 22:36 49.52093 32.91788 18158 ft 326 kts 294°
2026-04-15 22:36 49.53022 32.88611 18157 ft 326 kts 294°
2026-04-15 22:36 49.53943 32.85464 18160 ft 326 kts 294°
2026-04-15 22:36 49.54877 32.82260 18152 ft 326 kts 294°
2026-04-15 22:37 49.55799 32.79098 18151 ft 326 kts 294°
2026-04-15 22:37 49.56728 32.75907 18150 ft 326 kts 294°
2026-04-15 22:37 49.57647 32.72747 18161 ft 326 kts 294°
2026-04-15 22:37 49.58573 32.69556 18153 ft 325 kts 294°
2026-04-15 22:38 49.59495 32.66378 18153 ft 326 kts 294°
2026-04-15 22:38 49.60412 32.63213 18152 ft 325 kts 294°
2026-04-15 22:38 49.61333 32.60028 18159 ft 325 kts 294°
2026-04-15 22:38 49.62250 32.56852 18159 ft 325 kts 294°
2026-04-15 22:39 49.63170 32.53663 18145 ft 325 kts 294°
2026-04-15 22:39 49.64077 32.50512 18141 ft 325 kts 294°
2026-04-15 22:39 49.64996 32.47318 18142 ft 326 kts 294°
2026-04-15 22:39 49.65908 32.44144 18156 ft 325 kts 294°
2026-04-15 22:40 49.66826 32.40943 18154 ft 325 kts 294°
2026-04-15 22:40 49.67736 32.37768 18145 ft 325 kts 294°
2026-04-15 22:40 49.68653 32.34563 18148 ft 324 kts 294°
2026-04-15 22:41 49.70464 32.28222 18147 ft 324 kts 294°
2026-04-15 22:41 49.71371 32.25039 18144 ft 325 kts 294°
2026-04-15 22:41 49.72270 32.21883 18144 ft 325 kts 294°
2026-04-15 22:41 49.73175 32.18699 18146 ft 325 kts 293°
2026-04-15 22:42 49.74082 32.15501 18138 ft 325 kts 294°
2026-04-15 22:42 49.74995 32.12278 18150 ft 325 kts 294°
2026-04-15 22:42 49.75897 32.09091 18141 ft 325 kts 294°
2026-04-15 22:42 49.76804 32.05885 18138 ft 325 kts 294°
2026-04-15 22:43 49.77701 32.02708 18149 ft 326 kts 294°
2026-04-15 22:43 49.78611 31.99476 18147 ft 325 kts 294°
2026-04-15 22:43 49.79510 31.96279 18146 ft 325 kts 294°
2026-04-15 22:43 49.80407 31.93090 18134 ft 325 kts 294°
2026-04-15 22:44 49.81313 31.89865 18138 ft 325 kts 294°
2026-04-15 22:44 49.82308 31.86743 18137 ft 325 kts 299°
2026-04-15 22:44 49.83499 31.83785 18132 ft 326 kts 304°
2026-04-15 22:44 49.84879 31.80982 18137 ft 326 kts 308°
2026-04-15 22:45 49.86291 31.78294 18143 ft 326 kts 308°
2026-04-15 22:45 49.87731 31.75571 18138 ft 326 kts 308°
2026-04-15 22:45 49.89163 31.72863 18136 ft 325 kts 308°
2026-04-15 22:45 49.90597 31.70150 18139 ft 325 kts 308°
2026-04-15 22:46 49.92012 31.67469 18139 ft 324 kts 308°
2026-04-15 22:46 49.93440 31.64761 18140 ft 324 kts 308°
2026-04-15 22:46 49.94858 31.62067 18144 ft 324 kts 308°
2026-04-15 22:46 49.96289 31.59347 18138 ft 324 kts 308°
2026-04-15 22:47 49.97712 31.56639 18134 ft 325 kts 308°
2026-04-15 22:47 49.99144 31.53912 18134 ft 325 kts 308°
2026-04-15 22:47 50.00563 31.51204 18131 ft 325 kts 308°
2026-04-15 22:47 50.01984 31.48492 18134 ft 326 kts 308°
2026-04-15 22:48 50.03411 31.45762 18144 ft 326 kts 308°
2026-04-15 22:48 50.04835 31.43039 18135 ft 325 kts 308°
2026-04-15 22:48 50.06270 31.40317 18128 ft 325 kts 309°
2026-04-15 22:48 50.07793 31.37711 18002 ft 326 kts 313°
2026-04-15 22:49 50.09569 31.35534 17627 ft 328 kts 330°
2026-04-15 22:49 50.11767 31.34556 17245 ft 335 kts 351°
2026-04-15 22:49 50.14088 31.34847 16829 ft 341 kts
2026-04-15 22:49 50.16440 31.35478 16357 ft 339 kts
2026-04-15 22:50 50.18751 31.35936 15880 ft 337 kts
2026-04-15 22:50 50.21078 31.36220 15398 ft 336 kts 359°
2026-04-15 22:50 50.23386 31.36375 14930 ft 334 kts 357°
2026-04-15 22:50 50.25720 31.36452 14445 ft 333 kts 357°
2026-04-15 22:51 50.28029 31.36484 13981 ft 331 kts 356°
2026-04-15 22:51 50.30335 31.36491 13521 ft 329 kts 356°
2026-04-15 22:51 50.32615 31.36484 13046 ft 328 kts 356°
2026-04-15 22:51 50.34872 31.36470 12582 ft 326 kts 356°
2026-04-15 22:52 50.37138 31.36451 12115 ft 324 kts 356°
2026-04-15 22:52 50.39364 31.36430 11661 ft 322 kts 356°
2026-04-15 22:52 50.41605 31.36408 11209 ft 320 kts 356°
2026-04-15 22:52 50.43808 31.36385 10756 ft 318 kts 356°
2026-04-15 22:53 50.45995 31.36363 10432 ft 310 kts 356°
2026-04-15 22:53 50.48123 31.36344 10309 ft 297 kts 356°
2026-04-15 22:53 50.50132 31.36325 10182 ft 285 kts 356°
2026-04-15 22:53 50.52087 31.36305 9919 ft 279 kts 356°
2026-04-15 22:54 50.54004 31.36282 9545 ft 278 kts 356°
2026-04-15 22:54 50.55939 31.36261 9187 ft 276 kts 356°
2026-04-15 22:54 50.57849 31.36219 8828 ft 273 kts 353°
2026-04-15 22:54 50.59621 31.35386 8450 ft 266 kts 324°
2026-04-15 22:55 50.60885 31.33350 8106 ft 260 kts 298°
2026-04-15 22:55 50.61431 31.30698 7763 ft 258 kts 276°
2026-04-15 22:55 50.61524 31.27931 7445 ft 255 kts 273°
2026-04-15 22:55 50.61608 31.25148 7117 ft 253 kts 274°
2026-04-15 22:56 50.61696 31.22392 6789 ft 251 kts 274°
2026-04-15 22:56 50.61786 31.19650 6462 ft 249 kts 274°
2026-04-15 22:56 50.61877 31.16952 6145 ft 248 kts 274°
2026-04-15 22:56 50.61968 31.14265 5818 ft 246 kts 274°
2026-04-15 22:57 50.62059 31.11569 5489 ft 245 kts 274°
2026-04-15 22:57 50.62147 31.08917 5178 ft 243 kts 274°
2026-04-15 22:57 50.62235 31.06298 4867 ft 241 kts 273°
2026-04-15 22:57 50.62321 31.03681 4559 ft 240 kts 273°
2026-04-15 22:58 50.62373 31.01057 4238 ft 239 kts 266°
2026-04-15 22:58 50.61905 30.98539 3925 ft 245 kts 242°
2026-04-15 22:58 50.60853 30.96370 3849 ft 253 kts 232°
2026-04-15 22:58 50.59714 30.94275 3844 ft 255 kts 230°
2026-04-15 22:59 50.58280 30.92641 3834 ft 258 kts 203°
2026-04-15 22:59 50.56573 30.92062 3833 ft 240 kts 187°
2026-04-15 22:59 50.54996 30.91944 3831 ft 222 kts 184°
2026-04-15 22:59 50.53482 30.91898 3782 ft 210 kts 184°
2026-04-15 23:00 50.52063 30.91838 3553 ft 200 kts 185°
2026-04-15 23:00 50.50732 30.91757 3372 ft 187 kts 186°
2026-04-15 23:00 50.49458 30.91665 3122 ft 175 kts 187°
2026-04-15 23:00 50.48298 30.91576 2861 ft 163 kts 187°
2026-04-15 23:01 50.47199 30.91491 2610 ft 152 kts 187°
2026-04-15 23:01 50.46188 30.91413 2382 ft 140 kts 187°
2026-04-15 23:01 50.45239 30.91339 2188 ft 133 kts 187°
2026-04-15 23:01 50.44323 30.91267 2027 ft 133 kts 187°
2026-04-15 23:02 50.43389 30.91197 1865 ft 133 kts 187°
2026-04-15 23:02 50.42475 30.91136 1680 ft 132 kts 186°
2026-04-15 23:02 50.41559 30.91081 1479 ft 131 kts 185°
2026-04-15 23:02 50.40636 30.91043 1359 ft 131 kts 184°
2026-04-15 23:03 50.39725 30.90968 1166 ft 131 kts 188°
2026-04-15 23:03 50.38825 30.90877 948 ft 131 kts 184°
2026-04-15 23:03 50.37912 30.90801 784 ft 131 kts 185°
2026-04-15 23:03 50.37003 30.90719 615 ft 130 kts 183°
2026-04-15 23:04 50.36111 30.90650 458 ft 129 kts 183°
2026-04-15 23:04 50.35237 30.90576 403 ft 110 kts 183°
2026-04-15 23:04 50.34642 30.90543 407 ft 62 kts 181°
2026-04-15 23:04 50.34322 30.90511 407 ft 31 kts 190°
2026-04-15 23:05 50.34158 30.90410 407 ft 17 kts 210°
2026-04-15 23:05 50.34075 30.90329 409 ft 13 kts 212°
2026-04-15 23:05 50.34055 30.90310 410 ft 0 kts 212°